User: anonymous   Login
Location: Diebersbach
(48.5163°N, 8.0558°E)
Time: 03:04:04
(UTC+00:00)
Language:

Cosmos 1437 - Orbit

View from above orbital plane
View from above orbital plane
View from above satellite
View from above satellite

Ground track
Ground track

The orbit data is extracted from the following two-line orbital elements,

1 13770U 83003A   21270.50924706  .00063063  00000-0  28209-3 0  9999
2 13770  81.1508 357.8785 0000345  22.1121 338.0158 15.83975442130557
Epoch (UTC): 27 September 2021 12:13:18
Eccentricity: 0.0000345
inclination: 81.1508°
perigee height: 319 km
apogee height: 319 km
right ascension of ascending node: 357.8785°
argument of perigee: 22.1121°
revolutions per day: 15.83975442
mean anomaly at epoch: 338.0158°
orbit number at epoch: 13055

The dashed part of the orbit path shows where the satellite is in the earth's shadow,  

DLR